FENGYUN 1C DEB, 30647

Orbit data source: Space-Track

FENGYUN 1C DEB, 30647 is space debris in SSO originally from a launch on Mon, 10 May 1999 UTC launched from the Taiyaun Space Center, China (TSC). Fengyun 1C debris stems from the Chinese weather satellite Fengyun-1C, which was intentionally destroyed by a Chinese anti-satellite missile in 2007. This event dramatically increased the amount of space debris, with thousands of trackable fragments posing hazards to satellites and human spaceflight. The Fengyun 1C debris cloud has become a focal point in discussions about space sustainability and the need for international regulations to prevent the creation of new debris.

Loading next visibility...
Identifier
30647, 1999-025APE
Orbit
SSO
Country
Flag of CNCN / PRC
Related business
Manufacturer
Unknown
Mission
Spacecraft
Bus & Motor
Unknown
Mass
Unknown
Launch date (UTC)
1999-05-10 (27 years ago)
Launch vehicle
Unknown
Launch site
Taiyaun Space Center, China (TSC)
Object type
Payload
Rocket body
Debris
Shape & HBR
Unknown shape, 0.1 m
Radar Cross Section
Medium (>0.1 m² and <1 m²)

Expand to show TLE details & history
Last TLE update: 20 hours ago

TLE from 20 hours ago
0 FENGYUN 1C DEB
1 30647U 99025APE 26207.35563874  .00008903  00000-0  17964-2 0  9992
2 30647  98.9941 163.0928 0025839 205.9621 306.3462 14.61492335 12794
Epoch: 2026-07-26T08:32Z
TLE epoch observation values (Epoch: 2026-07-26T08:32:07.187Z)
Latitude
27.60044°
Longitude
-84.27102°
Altitude
680.979 km
Speed
7.524 km/s
True Right ascension
23h 11m 15s
True Declination
27° 27' 29"
Sunlit
Object was in full shadow at epoch
Visualization orbit readout
Latitude
Unknown
Longitude
Unknown
Altitude
Unknown
Speed
Unknown
Apparent Right ascension
Unknown
Apparent Declination
Unknown
Sunlit
N/A
Visualization observer readout
Local Sidereal Time
17:43:23
Azimuth
Unknown
Elevation
Unknown
Doppler factor
Unknown
Orbital elements
Apogee altitude
703.729 km
Perigee altitude
667.225 km
Semi-major axis
7,063.614 km
Eccentricity
0.00258
Inclination
98.9941°
RAAN
163.0928°
Arg. of periapsis
205.9621°
True anomaly
306.10725°
Mean anomaly
306.3462°
Eccentric anomaly
306.22677°
Mean motion
3.65597 °/min
Orbital period
98.47 mins
BSTAR
0.0017964
Loading maneuver chart data...
Computing Atmospheric mass density...

Documentation

Showing up to 5 results
|